Time,TemperatureF,DewpointF,PressureIn,WindDirection,WindDirectionDegrees,WindSpeedMPH,WindSpeedGustMPH,Humidity,HourlyPrecipIn,Conditions,Clouds,dailyrainin,SoftwareType,DateUTC
2013-06-01 00:01:00,75.0,51.1,29.97,NW,317,0.0,0.0,74,0.00,,,0.00,meteohub,2013-06-01 04:01:00,
2013-06-01 00:02:00,75.0,51.1,29.97,NW,317,0.0,0.0,74,0.00,,,0.00,meteohub,2013-06-01 04:02:00,
2013-06-01 00:06:00,74.8,50.9,29.97,NW,317,0.0,0.0,75,0.00,,,0.00,meteohub,2013-06-01 04:06:00,
2013-06-01 00:12:00,74.7,50.9,29.97,NW,317,0.0,0.0,76,0.00,,,0.00,meteohub,2013-06-01 04:12:00,
2013-06-01 00:17:00,74.5,50.9,29.97,NW,317,0.0,0.0,76,0.00,,,0.00,meteohub,2013-06-01 04:17:00,
2013-06-01 00:22:00,74.1,50.9,29.97,NW,317,0.0,0.0,76,0.00,,,0.00,meteohub,2013-06-01 04:22:00,
2013-06-01 00:27:00,73.9,50.9,29.96,NW,317,0.0,0.0,77,0.00,,,0.00,meteohub,2013-06-01 04:27:00,
2013-06-01 00:32:00,73.8,50.9,29.97,NW,317,0.0,0.0,77,0.00,,,0.00,meteohub,2013-06-01 04:32:00,
2013-06-01 00:37:00,73.8,50.7,29.96,NW,317,0.0,0.0,78,0.00,,,0.00,meteohub,2013-06-01 04:37:00,
2013-06-01 00:42:00,73.6,50.7,29.96,NW,317,0.0,0.0,78,0.00,,,0.00,meteohub,2013-06-01 04:42:00,
2013-06-01 00:47:00,73.2,50.7,29.96,NW,317,0.0,0.0,78,0.00,,,0.00,meteohub,2013-06-01 04:47:00,
2013-06-01 00:52:00,73.0,50.7,29.96,NW,317,0.0,0.0,79,0.00,,,0.00,meteohub,2013-06-01 04:52:00,
2013-06-01 00:57:00,73.0,50.7,29.96,NW,317,0.0,0.0,79,0.00,,,0.00,meteohub,2013-06-01 04:57:00,
2013-06-01 01:02:00,72.9,50.7,29.96,NW,317,0.0,0.0,79,0.00,,,0.00,meteohub,2013-06-01 05:02:00,
2013-06-01 01:07:00,72.7,50.7,29.96,NW,317,0.0,0.0,79,0.00,,,0.00,meteohub,2013-06-01 05:07:00,
2013-06-01 01:12:00,72.7,50.7,29.96,NW,317,0.0,0.0,80,0.00,,,0.00,meteohub,2013-06-01 05:12:00,
2013-06-01 01:17:00,72.7,50.7,29.96,NW,317,0.0,1.0,80,0.00,,,0.00,meteohub,2013-06-01 05:17:00,
2013-06-01 01:22:00,72.5,50.7,29.96,NW,317,0.0,1.0,80,0.00,,,0.00,meteohub,2013-06-01 05:22:00,
2013-06-01 01:27:00,72.5,50.7,29.95,NW,317,0.0,1.0,80,0.00,,,0.00,meteohub,2013-06-01 05:27:00,
2013-06-01 01:32:00,72.3,50.7,29.95,NW,317,0.0,1.0,80,0.00,,,0.00,meteohub,2013-06-01 05:32:00,
2013-06-01 01:37:00,72.3,50.7,29.95,NW,317,0.0,0.0,80,0.00,,,0.00,meteohub,2013-06-01 05:37:00,
2013-06-01 01:42:00,72.1,50.7,29.95,NW,317,0.0,0.0,81,0.00,,,0.00,meteohub,2013-06-01 05:42:00,
2013-06-01 01:47:00,72.1,50.7,29.95,NW,317,0.0,1.0,81,0.00,,,0.00,meteohub,2013-06-01 05:47:00,
2013-06-01 01:52:00,72.0,50.7,29.95,NW,317,0.0,1.0,81,0.00,,,0.00,meteohub,2013-06-01 05:52:00,
2013-06-01 01:57:00,72.0,50.7,29.95,NW,317,0.0,1.0,80,0.00,,,0.00,meteohub,2013-06-01 05:57:00,
2013-06-01 02:02:00,72.1,50.7,29.95,North,355,0.0,1.0,79,0.00,,,0.00,meteohub,2013-06-01 06:02:00,
2013-06-01 02:07:00,72.3,50.7,29.95,North,355,0.0,2.0,79,0.00,,,0.00,meteohub,2013-06-01 06:07:00,
2013-06-01 02:12:00,72.3,50.7,29.95,West,275,0.0,4.0,79,0.00,,,0.00,meteohub,2013-06-01 06:12:00,
2013-06-01 02:17:00,72.3,50.7,29.94,West,275,0.0,4.0,79,0.00,,,0.00,meteohub,2013-06-01 06:17:00,
2013-06-01 02:22:00,72.1,50.7,29.94,West,275,0.0,4.0,79,0.00,,,0.00,meteohub,2013-06-01 06:22:00,
2013-06-01 02:27:00,72.0,50.7,29.94,West,275,0.0,0.0,80,0.00,,,0.00,meteohub,2013-06-01 06:27:00,
2013-06-01 02:32:00,72.0,50.7,29.94,West,275,0.0,0.0,80,0.00,,,0.00,meteohub,2013-06-01 06:32:00,
2013-06-01 02:37:00,71.8,50.7,29.94,West,275,0.0,0.0,80,0.00,,,0.00,meteohub,2013-06-01 06:37:00,
2013-06-01 02:42:00,71.6,50.7,29.94,West,275,0.0,0.0,80,0.00,,,0.00,meteohub,2013-06-01 06:42:00,
2013-06-01 02:47:00,71.4,50.5,29.94,West,272,0.0,0.0,80,0.00,,,0.00,meteohub,2013-06-01 06:47:00,
2013-06-01 02:52:00,71.4,50.5,29.94,West,272,0.0,2.0,80,0.00,,,0.00,meteohub,2013-06-01 06:52:00,
2013-06-01 02:57:00,71.4,50.5,29.94,West,273,0.0,2.0,80,0.00,,,0.00,meteohub,2013-06-01 06:57:00,
2013-06-01 03:02:00,71.4,50.5,29.94,WNW,300,2.0,2.0,80,0.00,,,0.00,meteohub,2013-06-01 07:02:00,
2013-06-01 03:07:00,71.4,50.5,29.94,West,263,0.0,1.0,80,0.00,,,0.00,meteohub,2013-06-01 07:07:00,
2013-06-01 03:12:00,71.4,50.5,29.94,West,263,0.0,2.0,80,0.00,,,0.00,meteohub,2013-06-01 07:12:00,
2013-06-01 03:17:00,71.2,50.5,29.94,West,263,0.0,2.0,80,0.00,,,0.00,meteohub,2013-06-01 07:17:00,
2013-06-01 03:22:00,71.2,50.5,29.94,West,261,0.0,1.0,80,0.00,,,0.00,meteohub,2013-06-01 07:22:00,
2013-06-01 03:27:00,71.2,50.5,29.94,West,261,0.0,1.0,80,0.00,,,0.00,meteohub,2013-06-01 07:27:00,
2013-06-01 03:32:00,71.1,50.5,29.94,West,261,0.0,1.0,80,0.00,,,0.00,meteohub,2013-06-01 07:32:00,
2013-06-01 03:37:00,70.9,50.5,29.94,West,261,0.0,1.0,81,0.00,,,0.00,meteohub,2013-06-01 07:37:00,
2013-06-01 03:42:00,70.9,50.5,29.94,WNW,300,0.0,4.0,81,0.00,,,0.00,meteohub,2013-06-01 07:42:00,
2013-06-01 03:47:00,70.5,50.5,29.94,WNW,299,0.0,4.0,81,0.00,,,0.00,meteohub,2013-06-01 07:47:00,
2013-06-01 03:52:00,70.5,50.5,29.94,WNW,300,0.0,4.0,81,0.00,,,0.00,meteohub,2013-06-01 07:52:00,
2013-06-01 03:57:00,70.5,50.5,29.94,WNW,300,0.0,1.0,81,0.00,,,0.00,meteohub,2013-06-01 07:57:00,
2013-06-01 04:02:00,70.5,50.5,29.94,WNW,300,0.0,1.0,81,0.00,,,0.00,meteohub,2013-06-01 08:02:00,
2013-06-01 04:07:00,70.5,50.5,29.94,WNW,299,0.0,1.0,81,0.00,,,0.00,meteohub,2013-06-01 08:07:00,
2013-06-01 04:12:00,70.5,50.5,29.95,WNW,300,0.0,2.0,81,0.00,,,0.00,meteohub,2013-06-01 08:12:00,
2013-06-01 04:17:00,70.3,50.5,29.94,WNW,300,0.0,2.0,80,0.00,,,0.00,meteohub,2013-06-01 08:17:00,
2013-06-01 04:22:00,70.3,50.5,29.95,WNW,299,0.0,0.0,81,0.00,,,0.00,meteohub,2013-06-01 08:22:00,
2013-06-01 04:27:00,70.3,50.5,29.94,WNW,300,0.0,1.0,81,0.00,,,0.00,meteohub,2013-06-01 08:27:00,
2013-06-01 04:32:00,70.2,50.5,29.94,WNW,299,0.0,1.0,80,0.00,,,0.00,meteohub,2013-06-01 08:32:00,
2013-06-01 04:37:00,70.2,50.5,29.94,WSW,257,0.0,1.0,80,0.00,,,0.00,meteohub,2013-06-01 08:37:00,
2013-06-01 04:42:00,70.3,50.5,29.94,SSE,149,0.0,5.0,80,0.00,,,0.00,meteohub,2013-06-01 08:42:00,
2013-06-01 04:47:00,70.2,50.5,29.94,SSE,150,0.0,5.0,81,0.00,,,0.00,meteohub,2013-06-01 08:47:00,
2013-06-01 04:52:00,70.0,50.5,29.95,SSE,150,0.0,5.0,81,0.00,,,0.00,meteohub,2013-06-01 08:52:00,
2013-06-01 04:57:00,69.4,50.5,29.94,SSE,149,0.0,0.0,82,0.00,,,0.00,meteohub,2013-06-01 08:57:00,
2013-06-01 05:02:00,69.3,50.5,29.95,SSE,149,0.0,0.0,83,0.00,,,0.00,meteohub,2013-06-01 09:02:00,
2013-06-01 05:07:00,68.9,50.5,29.95,SSE,150,0.0,0.0,83,0.00,,,0.00,meteohub,2013-06-01 09:07:00,
2013-06-01 05:12:00,68.7,50.5,29.95,SSE,149,0.0,1.0,83,0.00,,,0.00,meteohub,2013-06-01 09:12:00,
2013-06-01 05:17:00,68.7,50.5,29.95,SSE,152,0.0,2.0,84,0.00,,,0.00,meteohub,2013-06-01 09:17:00,
2013-06-01 05:22:00,68.5,50.5,29.95,SSE,152,0.0,2.0,84,0.00,,,0.00,meteohub,2013-06-01 09:22:00,
2013-06-01 05:27:00,68.5,50.5,29.95,SSE,152,0.0,2.0,84,0.00,,,0.00,meteohub,2013-06-01 09:27:00,
2013-06-01 05:32:00,68.5,50.5,29.95,SSE,152,0.0,1.0,85,0.00,,,0.00,meteohub,2013-06-01 09:32:00,
2013-06-01 05:37:00,68.4,50.5,29.95,SSE,152,0.0,1.0,85,0.00,,,0.00,meteohub,2013-06-01 09:37:00,
2013-06-01 05:42:00,68.4,50.5,29.95,SSE,152,0.0,1.0,85,0.00,,,0.00,meteohub,2013-06-01 09:42:00,
2013-06-01 05:47:00,68.4,50.5,29.95,SSE,152,0.0,0.0,85,0.00,,,0.00,meteohub,2013-06-01 09:47:00,
2013-06-01 05:52:00,68.2,50.5,29.95,SSE,152,0.0,0.0,85,0.00,,,0.00,meteohub,2013-06-01 09:52:00,
2013-06-01 05:57:00,68.2,50.5,29.95,SSE,152,0.0,0.0,86,0.00,,,0.00,meteohub,2013-06-01 09:57:00,
2013-06-01 06:02:00,68.0,50.5,29.95,SSE,152,0.0,0.0,87,0.00,,,0.00,meteohub,2013-06-01 10:02:00,
2013-06-01 06:07:00,67.8,50.5,29.95,SSE,152,0.0,0.0,87,0.00,,,0.00,meteohub,2013-06-01 10:07:00,
2013-06-01 06:12:00,67.8,50.5,29.96,SSE,152,0.0,0.0,87,0.00,,,0.00,meteohub,2013-06-01 10:12:00,
2013-06-01 06:17:00,67.6,50.5,29.96,SSE,152,0.0,0.0,87,0.00,,,0.00,meteohub,2013-06-01 10:17:00,
2013-06-01 06:22:00,67.6,50.5,29.96,SSE,152,0.0,0.0,88,0.00,,,0.00,meteohub,2013-06-01 10:22:00,
2013-06-01 06:27:00,67.6,50.5,29.96,SSE,152,0.0,0.0,87,0.00,,,0.00,meteohub,2013-06-01 10:27:00,
2013-06-01 06:32:00,67.8,50.5,29.96,SSE,152,0.0,0.0,87,0.00,,,0.00,meteohub,2013-06-01 10:32:00,
2013-06-01 06:37:00,68.0,50.5,29.96,SSE,152,0.0,0.0,88,0.00,,,0.00,meteohub,2013-06-01 10:37:00,
2013-06-01 06:42:00,68.2,50.5,29.95,SSE,152,0.0,0.0,87,0.00,,,0.00,meteohub,2013-06-01 10:42:00,
2013-06-01 06:47:00,68.4,50.5,29.95,SSE,152,0.0,0.0,86,0.00,,,0.00,meteohub,2013-06-01 10:47:00,
2013-06-01 06:52:00,68.7,50.5,29.95,SSE,152,0.0,0.0,86,0.00,,,0.00,meteohub,2013-06-01 10:52:00,
2013-06-01 06:57:00,69.3,50.5,29.95,SSE,152,0.0,0.0,85,0.00,,,0.00,meteohub,2013-06-01 10:57:00,
2013-06-01 07:02:00,69.6,50.7,29.95,SSE,152,0.0,0.0,85,0.00,,,0.00,meteohub,2013-06-01 11:02:00,
2013-06-01 07:07:00,70.0,50.7,29.95,SSE,152,0.0,1.0,84,0.00,,,0.00,meteohub,2013-06-01 11:07:00,
2013-06-01 07:12:00,70.3,50.7,29.96,SSE,152,0.0,1.0,83,0.00,,,0.00,meteohub,2013-06-01 11:12:00,
2013-06-01 07:17:00,70.5,50.7,29.96,SSE,152,0.0,1.0,83,0.00,,,0.00,meteohub,2013-06-01 11:17:00,
2013-06-01 07:22:00,70.9,50.7,29.96,SSE,152,2.0,2.0,82,0.00,,,0.00,meteohub,2013-06-01 11:22:00,
2013-06-01 07:27:00,71.2,51.4,29.96,SSE,152,0.0,2.0,82,0.00,,,0.00,meteohub,2013-06-01 11:27:00,
2013-06-01 07:32:00,71.8,51.4,29.96,SSE,153,0.0,2.0,81,0.00,,,0.00,meteohub,2013-06-01 11:32:00,
2013-06-01 07:37:00,72.0,51.6,29.96,SSE,152,0.0,2.0,81,0.00,,,0.00,meteohub,2013-06-01 11:37:00,
2013-06-01 07:42:00,72.3,51.6,29.96,SSE,153,0.0,1.0,81,0.00,,,0.00,meteohub,2013-06-01 11:42:00,
2013-06-01 07:47:00,72.9,51.8,29.96,SSE,152,0.0,1.0,80,0.00,,,0.00,meteohub,2013-06-01 11:47:00,
2013-06-01 07:52:00,73.0,51.8,29.96,SSE,152,0.0,0.0,80,0.00,,,0.00,meteohub,2013-06-01 11:52:00,
2013-06-01 07:57:00,73.6,51.8,29.96,SSE,152,0.0,1.0,79,0.00,,,0.00,meteohub,2013-06-01 11:57:00,
2013-06-01 08:02:00,73.9,52.0,29.96,SSE,152,0.0,1.0,79,0.00,,,0.00,meteohub,2013-06-01 12:02:00,
2013-06-01 08:07:00,74.1,52.0,29.96,ENE,61,1.0,1.0,79,0.00,,,0.00,meteohub,2013-06-01 12:07:00,
2013-06-01 08:12:00,74.7,52.0,29.96,ENE,62,0.0,2.0,78,0.00,,,0.00,meteohub,2013-06-01 12:12:00,
2013-06-01 08:17:00,75.0,52.2,29.96,WNW,297,0.0,2.0,76,0.00,,,0.00,meteohub,2013-06-01 12:17:00,
2013-06-01 08:22:00,75.6,52.2,29.96,WNW,296,0.0,6.0,76,0.00,,,0.00,meteohub,2013-06-01 12:22:00,
2013-06-01 08:27:00,76.1,52.2,29.96,WNW,297,0.0,6.0,74,0.00,,,0.00,meteohub,2013-06-01 12:27:00,
2013-06-01 08:32:00,76.6,52.2,29.96,SSE,161,0.0,6.0,74,0.00,,,0.00,meteohub,2013-06-01 12:32:00,
2013-06-01 08:37:00,77.2,52.3,29.96,NW,317,1.0,4.0,72,0.00,,,0.00,meteohub,2013-06-01 12:37:00,
2013-06-01 08:42:00,77.7,52.3,29.96,NW,314,1.0,4.0,71,0.00,,,0.00,meteohub,2013-06-01 12:42:00,
2013-06-01 08:47:00,78.4,52.3,29.96,NW,317,1.0,6.0,69,0.00,,,0.00,meteohub,2013-06-01 12:47:00,
2013-06-01 08:52:00,79.0,52.3,29.95,NW,317,0.0,6.0,70,0.00,,,0.00,meteohub,2013-06-01 12:52:00,
2013-06-01 08:57:00,79.5,52.5,29.95,NW,317,0.0,6.0,69,0.00,,,0.00,meteohub,2013-06-01 12:57:00,
2013-06-01 09:02:00,79.9,52.5,29.95,NNW,337,4.0,7.0,68,0.00,,,0.00,meteohub,2013-06-01 13:02:00,
2013-06-01 09:07:00,80.2,52.5,29.96,NW,304,0.0,7.0,69,0.00,,,0.00,meteohub,2013-06-01 13:07:00,
2013-06-01 09:12:00,80.4,52.7,29.96,West,281,0.0,7.0,68,0.00,,,0.00,meteohub,2013-06-01 13:12:00,
2013-06-01 09:17:00,81.0,52.7,29.96,WNW,282,0.0,5.0,68,0.00,,,0.00,meteohub,2013-06-01 13:17:00,
2013-06-01 09:22:00,81.3,52.7,29.95,West,281,0.0,5.0,67,0.00,,,0.00,meteohub,2013-06-01 13:22:00,
2013-06-01 09:27:00,81.7,52.7,29.95,NW,321,0.0,2.0,66,0.00,,,0.00,meteohub,2013-06-01 13:27:00,
2013-06-01 09:32:00,81.9,52.9,29.95,NW,317,0.0,4.0,67,0.00,,,0.00,meteohub,2013-06-01 13:32:00,
2013-06-01 09:37:00,82.0,52.9,29.95,West,273,0.0,4.0,65,0.00,,,0.00,meteohub,2013-06-01 13:37:00,
2013-06-01 09:42:00,82.4,52.9,29.95,West,265,0.0,4.0,65,0.00,,,0.00,meteohub,2013-06-01 13:42:00,
2013-06-01 09:47:00,82.8,52.2,29.95,West,260,0.0,2.0,65,0.00,,,0.00,meteohub,2013-06-01 13:47:00,
2013-06-01 09:52:00,83.1,52.9,29.95,WSW,253,0.0,2.0,65,0.00,,,0.00,meteohub,2013-06-01 13:52:00,
2013-06-01 09:57:00,83.7,52.9,29.95,WSW,253,0.0,1.0,63,0.00,,,0.00,meteohub,2013-06-01 13:57:00,
2013-06-01 10:02:00,84.4,52.2,29.95,NW,317,0.0,1.0,60,0.00,,,0.00,meteohub,2013-06-01 14:02:00,
2013-06-01 10:07:00,84.9,52.2,29.95,NW,317,3.0,3.0,62,0.00,,,0.00,meteohub,2013-06-01 14:07:00,
2013-06-01 10:12:00,85.5,52.2,29.95,NW,315,2.0,4.0,57,0.00,,,0.00,meteohub,2013-06-01 14:12:00,
2013-06-01 10:17:00,85.8,52.2,29.95,NW,321,1.0,7.0,58,0.00,,,0.00,meteohub,2013-06-01 14:17:00,
2013-06-01 10:22:00,86.2,52.3,29.95,NW,315,2.0,7.0,56,0.00,,,0.00,meteohub,2013-06-01 14:22:00,
2013-06-01 10:27:00,86.5,52.3,29.95,WNW,285,0.0,7.0,54,0.00,,,0.00,meteohub,2013-06-01 14:27:00,
2013-06-01 10:32:00,86.7,52.3,29.95,South,180,0.0,6.0,54,0.00,,,0.00,meteohub,2013-06-01 14:32:00,
2013-06-01 10:37:00,87.3,52.3,29.95,South,177,0.0,6.0,55,0.00,,,0.00,meteohub,2013-06-01 14:37:00,
2013-06-01 10:42:00,87.4,52.5,29.94,SSE,162,1.0,4.0,54,0.00,,,0.00,meteohub,2013-06-01 14:42:00,
2013-06-01 10:47:00,87.4,52.5,29.94,WNW,296,0.0,3.0,54,0.00,,,0.00,meteohub,2013-06-01 14:47:00,
2013-06-01 10:52:00,87.6,52.5,29.94,NW,323,5.0,5.0,53,0.00,,,0.00,meteohub,2013-06-01 14:52:00,
2013-06-01 10:57:00,88.2,52.5,29.94,SSE,165,1.0,5.0,53,0.00,,,0.00,meteohub,2013-06-01 14:57:00,
2013-06-01 11:02:00,88.5,52.9,29.94,NW,325,1.0,6.0,49,0.00,,,0.00,meteohub,2013-06-01 15:02:00,
2013-06-01 11:07:00,88.5,52.9,29.94,WNW,303,1.0,7.0,49,0.00,,,0.00,meteohub,2013-06-01 15:07:00,
2013-06-01 11:12:00,88.3,52.9,29.94,ENE,59,1.0,8.0,50,0.00,,,0.00,meteohub,2013-06-01 15:12:00,
2013-06-01 11:17:00,88.2,52.5,29.94,NW,306,0.0,8.0,54,0.00,,,0.00,meteohub,2013-06-01 15:17:00,
2013-06-01 11:22:00,88.3,52.5,29.94,NNW,336,0.0,8.0,50,0.00,,,0.00,meteohub,2013-06-01 15:22:00,
2013-06-01 11:27:00,88.5,52.3,29.94,NNW,338,3.0,6.0,51,0.00,,,0.00,meteohub,2013-06-01 15:27:00,
2013-06-01 11:32:00,88.5,52.3,29.94,NNW,327,5.0,5.0,51,0.00,,,0.00,meteohub,2013-06-01 15:32:00,
2013-06-01 11:37:00,88.3,52.3,29.94,NW,316,1.0,6.0,52,0.00,,,0.00,meteohub,2013-06-01 15:37:00,
2013-06-01 11:42:00,88.3,52.2,29.93,East,91,0.0,6.0,52,0.00,,,0.00,meteohub,2013-06-01 15:42:00,
2013-06-01 11:47:00,88.3,52.2,29.93,NW,307,2.0,6.0,53,0.00,,,0.00,meteohub,2013-06-01 15:47:00,
2013-06-01 11:52:00,88.5,52.2,29.93,WNW,303,0.0,7.0,51,0.00,,,0.00,meteohub,2013-06-01 15:52:00,
2013-06-01 11:57:00,88.7,52.2,29.93,East,99,0.0,7.0,51,0.00,,,0.00,meteohub,2013-06-01 15:57:00,
2013-06-01 12:02:00,89.1,52.2,29.93,East,100,1.0,7.0,53,0.00,,,0.00,meteohub,2013-06-01 16:02:00,
2013-06-01 12:07:00,89.2,52.2,29.93,SW,234,0.0,6.0,53,0.00,,,0.00,meteohub,2013-06-01 16:07:00,
2013-06-01 12:12:00,89.4,52.0,29.93,NNW,327,0.0,5.0,52,0.00,,,0.00,meteohub,2013-06-01 16:12:00,
2013-06-01 12:17:00,89.4,52.2,29.92,NNW,334,1.0,5.0,52,0.00,,,0.00,meteohub,2013-06-01 16:17:00,
2013-06-01 12:22:00,89.8,52.9,29.91,NW,323,0.0,3.0,51,0.00,,,0.00,meteohub,2013-06-01 16:22:00,
2013-06-01 12:27:00,89.8,52.7,29.92,NNW,330,0.0,5.0,49,0.00,,,0.00,meteohub,2013-06-01 16:27:00,
2013-06-01 12:32:00,90.1,52.7,29.91,North,5,1.0,5.0,54,0.00,,,0.00,meteohub,2013-06-01 16:32:00,
2013-06-01 12:37:00,90.1,52.7,29.91,NNW,331,1.0,6.0,48,0.00,,,0.00,meteohub,2013-06-01 16:37:00,
2013-06-01 12:42:00,90.3,52.0,29.91,WNW,303,0.0,6.0,48,0.00,,,0.00,meteohub,2013-06-01 16:42:00,
2013-06-01 12:47:00,90.3,52.0,29.91,SE,137,0.0,7.0,50,0.00,,,0.00,meteohub,2013-06-01 16:47:00,
2013-06-01 12:52:00,90.3,52.5,29.90,SSE,150,0.0,7.0,49,0.00,,,0.00,meteohub,2013-06-01 16:52:00,
2013-06-01 12:57:00,90.7,52.7,29.90,NE,41,0.0,6.0,48,0.00,,,0.00,meteohub,2013-06-01 16:57:00,
2013-06-01 13:02:00,90.9,52.7,29.90,WNW,299,1.0,4.0,47,0.00,,,0.00,meteohub,2013-06-01 17:02:00,
2013-06-01 13:07:00,90.9,52.7,29.89,WNW,302,3.0,6.0,46,0.00,,,0.00,meteohub,2013-06-01 17:07:00,
2013-06-01 13:12:00,90.5,52.7,29.89,WSW,256,0.0,7.0,46,0.00,,,0.00,meteohub,2013-06-01 17:12:00,
2013-06-01 13:17:00,90.5,52.7,29.89,West,277,1.0,7.0,48,0.00,,,0.00,meteohub,2013-06-01 17:17:00,
2013-06-01 13:22:00,90.9,52.7,29.89,NNW,330,0.0,7.0,47,0.00,,,0.00,meteohub,2013-06-01 17:22:00,
2013-06-01 13:27:00,91.0,52.9,29.89,ENE,59,1.0,7.0,47,0.00,,,0.00,meteohub,2013-06-01 17:27:00,
2013-06-01 13:32:00,91.2,52.9,29.89,NW,306,2.0,7.0,47,0.00,,,0.00,meteohub,2013-06-01 17:32:00,
2013-06-01 13:37:00,91.6,52.7,29.89,NW,319,1.0,7.0,47,0.00,,,0.00,meteohub,2013-06-01 17:37:00,
2013-06-01 13:42:00,91.6,52.7,29.89,NE,49,1.0,7.0,45,0.00,,,0.00,meteohub,2013-06-01 17:42:00,
2013-06-01 13:47:00,91.8,52.9,29.89,WNW,284,0.0,7.0,45,0.00,,,0.00,meteohub,2013-06-01 17:47:00,
2013-06-01 13:52:00,91.9,52.9,29.89,SSE,155,1.0,6.0,45,0.00,,,0.00,meteohub,2013-06-01 17:52:00,
2013-06-01 13:57:00,91.8,52.9,29.89,NNW,336,0.0,7.0,45,0.00,,,0.00,meteohub,2013-06-01 17:57:00,
2013-06-01 14:02:00,91.9,52.7,29.89,West,268,0.0,7.0,43,0.00,,,0.00,meteohub,2013-06-01 18:02:00,
2013-06-01 14:07:00,92.3,52.9,29.88,WNW,283,1.0,7.0,46,0.00,,,0.00,meteohub,2013-06-01 18:07:00,
2013-06-01 14:12:00,92.1,52.9,29.88,NNW,343,2.0,5.0,45,0.00,,,0.00,meteohub,2013-06-01 18:12:00,
2013-06-01 14:17:00,92.3,52.9,29.88,SSE,165,1.0,5.0,48,0.00,,,0.00,meteohub,2013-06-01 18:17:00,
2013-06-01 14:22:00,92.3,52.9,29.88,NNW,329,0.0,7.0,44,0.00,,,0.00,meteohub,2013-06-01 18:22:00,
2013-06-01 14:27:00,92.7,52.9,29.88,NW,319,2.0,7.0,43,0.00,,,0.00,meteohub,2013-06-01 18:27:00,
2013-06-01 14:32:00,92.8,52.9,29.88,NW,321,0.0,6.0,47,0.00,,,0.00,meteohub,2013-06-01 18:32:00,
2013-06-01 14:37:00,93.0,52.9,29.88,NNW,338,1.0,6.0,44,0.00,,,0.00,meteohub,2013-06-01 18:37:00,
2013-06-01 14:42:00,92.8,52.9,29.88,NW,319,0.0,7.0,46,0.00,,,0.00,meteohub,2013-06-01 18:42:00,
2013-06-01 14:47:00,92.8,52.9,29.88,NW,309,4.0,7.0,44,0.00,,,0.00,meteohub,2013-06-01 18:47:00,
2013-06-01 14:52:00,92.8,52.9,29.88,SSE,150,1.0,7.0,45,0.00,,,0.00,meteohub,2013-06-01 18:52:00,
2013-06-01 14:57:00,92.7,52.9,29.88,SSE,150,0.0,6.0,44,0.00,,,0.00,meteohub,2013-06-01 18:57:00,
2013-06-01 15:02:00,92.5,52.9,29.87,West,272,1.0,6.0,45,0.00,,,0.00,meteohub,2013-06-01 19:02:00,
2013-06-01 15:07:00,92.5,52.9,29.87,North,0,1.0,6.0,47,0.00,,,0.00,meteohub,2013-06-01 19:07:00,
2013-06-01 15:12:00,92.5,52.9,29.87,NNE,22,0.0,6.0,47,0.00,,,0.00,meteohub,2013-06-01 19:12:00,
2013-06-01 15:17:00,92.5,52.9,29.88,West,277,5.0,6.0,46,0.00,,,0.00,meteohub,2013-06-01 19:17:00,
2013-06-01 15:22:00,92.5,52.9,29.87,NNW,340,0.0,5.0,48,0.00,,,0.00,meteohub,2013-06-01 19:22:00,
2013-06-01 15:27:00,92.5,52.9,29.87,NNW,329,1.0,6.0,47,0.00,,,0.00,meteohub,2013-06-01 19:27:00,
2013-06-01 15:32:00,92.1,52.9,29.87,ESE,121,1.0,9.0,47,0.00,,,0.00,meteohub,2013-06-01 19:32:00,
2013-06-01 15:37:00,91.9,52.9,29.87,NNW,332,1.0,9.0,47,0.00,,,0.00,meteohub,2013-06-01 19:37:00,
2013-06-01 15:42:00,91.8,52.9,29.87,NW,311,0.0,9.0,49,0.00,,,0.00,meteohub,2013-06-01 19:42:00,
2013-06-01 15:47:00,91.9,52.9,29.87,NW,316,1.0,8.0,48,0.00,,,0.00,meteohub,2013-06-01 19:47:00,
2013-06-01 15:52:00,92.1,52.7,29.87,NNW,331,2.0,8.0,49,0.00,,,0.00,meteohub,2013-06-01 19:52:00,
2013-06-01 15:57:00,92.1,52.9,29.87,SW,225,0.0,5.0,48,0.00,,,0.00,meteohub,2013-06-01 19:57:00,
2013-06-01 16:02:00,92.1,52.9,29.87,South,180,4.0,5.0,48,0.00,,,0.00,meteohub,2013-06-01 20:02:00,
2013-06-01 16:07:00,91.9,52.9,29.87,NNW,343,1.0,5.0,50,0.00,,,0.00,meteohub,2013-06-01 20:07:00,
2013-06-01 16:12:00,91.8,52.7,29.87,NW,318,2.0,5.0,48,0.00,,,0.00,meteohub,2013-06-01 20:12:00,
2013-06-01 16:17:00,91.8,52.7,29.86,WNW,287,0.0,10.0,49,0.00,,,0.00,meteohub,2013-06-01 20:17:00,
2013-06-01 16:22:00,91.6,52.9,29.87,SSE,151,0.0,10.0,51,0.00,,,0.00,meteohub,2013-06-01 20:22:00,
2013-06-01 16:27:00,91.2,52.9,29.87,NW,310,1.0,10.0,50,0.00,,,0.00,meteohub,2013-06-01 20:27:00,
2013-06-01 16:32:00,91.0,52.7,29.86,NW,304,0.0,4.0,49,0.00,,,0.00,meteohub,2013-06-01 20:32:00,
2013-06-01 16:37:00,91.0,52.7,29.86,SSW,198,1.0,9.0,50,0.00,,,0.00,meteohub,2013-06-01 20:37:00,
2013-06-01 16:42:00,91.2,52.9,29.86,NW,317,0.0,9.0,51,0.00,,,0.00,meteohub,2013-06-01 20:42:00,
2013-06-01 16:47:00,91.6,52.9,29.86,WNW,300,3.0,9.0,50,0.00,,,0.00,meteohub,2013-06-01 20:47:00,
2013-06-01 16:52:00,91.6,52.9,29.86,NE,44,0.0,9.0,50,0.00,,,0.00,meteohub,2013-06-01 20:52:00,
2013-06-01 16:57:00,91.2,52.9,29.86,NW,307,2.0,6.0,50,0.00,,,0.00,meteohub,2013-06-01 20:57:00,
2013-06-01 17:02:00,91.0,52.9,29.86,NW,314,7.0,8.0,49,0.00,,,0.00,meteohub,2013-06-01 21:02:00,
2013-06-01 17:07:00,91.0,52.9,29.86,WNW,300,2.0,8.0,52,0.00,,,0.00,meteohub,2013-06-01 21:07:00,
2013-06-01 17:12:00,90.7,52.9,29.86,NW,321,1.0,8.0,50,0.00,,,0.00,meteohub,2013-06-01 21:12:00,
2013-06-01 17:17:00,90.3,52.9,29.86,NNW,327,4.0,8.0,51,0.00,,,0.00,meteohub,2013-06-01 21:17:00,
2013-06-01 17:22:00,90.1,52.9,29.86,NNW,328,3.0,8.0,52,0.00,,,0.00,meteohub,2013-06-01 21:22:00,
2013-06-01 17:27:00,89.8,52.9,29.86,NNW,346,1.0,7.0,53,0.00,,,0.00,meteohub,2013-06-01 21:27:00,
2013-06-01 17:32:00,89.6,52.9,29.86,WNW,303,6.0,6.0,53,0.00,,,0.00,meteohub,2013-06-01 21:32:00,
2013-06-01 17:37:00,89.2,52.9,29.86,NW,306,2.0,5.0,54,0.00,,,0.00,meteohub,2013-06-01 21:37:00,
2013-06-01 17:42:00,89.2,52.9,29.86,NW,319,1.0,6.0,54,0.00,,,0.00,meteohub,2013-06-01 21:42:00,
2013-06-01 17:47:00,89.1,53.6,29.85,West,269,0.0,6.0,54,0.00,,,0.00,meteohub,2013-06-01 21:47:00,
2013-06-01 17:52:00,89.1,52.9,29.85,NW,313,2.0,5.0,55,0.00,,,0.00,meteohub,2013-06-01 21:52:00,
2013-06-01 17:57:00,88.9,52.9,29.85,NW,304,2.0,5.0,56,0.00,,,0.00,meteohub,2013-06-01 21:57:00,
2013-06-01 18:02:00,88.7,53.6,29.84,SE,146,0.0,4.0,57,0.00,,,0.00,meteohub,2013-06-01 22:02:00,
2013-06-01 18:07:00,88.3,53.6,29.84,WNW,292,4.0,5.0,58,0.00,,,0.00,meteohub,2013-06-01 22:07:00,
2013-06-01 18:12:00,88.0,53.6,29.85,NW,319,4.0,5.0,59,0.00,,,0.00,meteohub,2013-06-01 22:12:00,
2013-06-01 18:17:00,87.6,53.6,29.85,NW,314,0.0,5.0,59,0.00,,,0.00,meteohub,2013-06-01 22:17:00,
2013-06-01 18:22:00,87.3,53.6,29.85,WNW,300,2.0,5.0,60,0.00,,,0.00,meteohub,2013-06-01 22:22:00,
2013-06-01 18:28:00,86.9,53.6,29.85,NW,306,0.0,6.0,61,0.00,,,0.00,meteohub,2013-06-01 22:28:00,
2013-06-01 18:33:00,86.5,53.6,29.85,NNW,340,0.0,6.0,61,0.00,,,0.00,meteohub,2013-06-01 22:33:00,
2013-06-01 18:38:00,86.2,52.9,29.85,NW,317,0.0,6.0,63,0.00,,,0.00,meteohub,2013-06-01 22:38:00,
2013-06-01 18:43:00,86.0,52.9,29.85,WNW,287,0.0,4.0,63,0.00,,,0.00,meteohub,2013-06-01 22:43:00,
2013-06-01 18:48:00,85.6,52.9,29.86,WNW,291,0.0,4.0,63,0.00,,,0.00,meteohub,2013-06-01 22:48:00,
2013-06-01 18:53:00,85.5,52.9,29.86,NNW,342,0.0,5.0,64,0.00,,,0.00,meteohub,2013-06-01 22:53:00,
2013-06-01 18:58:00,85.3,53.1,29.86,NNW,330,1.0,6.0,64,0.00,,,0.00,meteohub,2013-06-01 22:58:00,
2013-06-01 19:03:00,84.9,52.9,29.86,NNW,333,0.0,6.0,65,0.00,,,0.00,meteohub,2013-06-01 23:03:00,
2013-06-01 19:08:00,84.7,52.9,29.86,North,355,0.0,6.0,65,0.00,,,0.00,meteohub,2013-06-01 23:08:00,
2013-06-01 19:13:00,84.4,52.9,29.87,East,98,0.0,6.0,66,0.00,,,0.00,meteohub,2013-06-01 23:13:00,
2013-06-01 19:18:00,84.2,52.9,29.87,NNW,340,0.0,2.0,67,0.00,,,0.00,meteohub,2013-06-01 23:18:00,
2013-06-01 19:23:00,83.8,52.9,29.87,North,355,0.0,2.0,67,0.00,,,0.00,meteohub,2013-06-01 23:23:00,
2013-06-01 19:28:00,83.7,52.9,29.87,NW,310,0.0,6.0,68,0.00,,,0.00,meteohub,2013-06-01 23:28:00,
2013-06-01 19:33:00,83.5,52.9,29.87,NW,315,0.0,6.0,68,0.00,,,0.00,meteohub,2013-06-01 23:33:00,
2013-06-01 19:38:00,83.1,52.9,29.87,NW,316,0.0,5.0,69,0.00,,,0.00,meteohub,2013-06-01 23:38:00,
2013-06-01 19:43:00,82.9,52.9,29.87,NW,315,0.0,4.0,69,0.00,,,0.00,meteohub,2013-06-01 23:43:00,
2013-06-01 19:48:00,82.8,52.9,29.87,NW,315,0.0,1.0,70,0.00,,,0.00,meteohub,2013-06-01 23:48:00,
2013-06-01 19:53:00,82.6,52.7,29.87,NW,316,0.0,2.0,70,0.00,,,0.00,meteohub,2013-06-01 23:53:00,
2013-06-01 19:58:00,82.2,52.7,29.86,NW,315,0.0,2.0,70,0.00,,,0.00,meteohub,2013-06-01 23:58:00,
2013-06-01 20:03:00,82.0,52.7,29.86,NNE,20,0.0,2.0,70,0.00,,,0.00,meteohub,2013-06-02 00:03:00,
2013-06-01 20:08:00,81.9,52.7,29.86,NNW,331,0.0,2.0,70,0.00,,,0.00,meteohub,2013-06-02 00:08:00,
2013-06-01 20:13:00,81.7,52.7,29.86,NW,326,0.0,2.0,70,0.00,,,0.00,meteohub,2013-06-02 00:13:00,
2013-06-01 20:18:00,81.5,52.7,29.86,NW,326,0.0,2.0,71,0.00,,,0.00,meteohub,2013-06-02 00:18:00,
2013-06-01 20:23:00,81.3,52.7,29.86,NNW,347,0.0,2.0,70,0.00,,,0.00,meteohub,2013-06-02 00:23:00,
2013-06-01 20:28:00,81.1,52.7,29.86,NNW,347,0.0,3.0,71,0.00,,,0.00,meteohub,2013-06-02 00:28:00,
2013-06-01 20:33:00,81.0,53.4,29.86,NNW,335,0.0,3.0,71,0.00,,,0.00,meteohub,2013-06-02 00:33:00,
2013-06-01 20:38:00,80.8,53.4,29.86,NNW,333,0.0,5.0,71,0.00,,,0.00,meteohub,2013-06-02 00:38:00,
2013-06-01 20:43:00,80.4,52.7,29.86,NNW,333,0.0,5.0,71,0.00,,,0.00,meteohub,2013-06-02 00:43:00,
2013-06-01 20:48:00,80.2,52.7,29.87,NNW,333,0.0,5.0,72,0.00,,,0.00,meteohub,2013-06-02 00:48:00,
2013-06-01 20:53:00,80.1,52.7,29.87,NNW,346,1.0,1.0,72,0.00,,,0.00,meteohub,2013-06-02 00:53:00,
2013-06-01 20:58:00,80.1,53.4,29.87,North,350,0.0,1.0,72,0.00,,,0.00,meteohub,2013-06-02 00:58:00,
2013-06-01 21:03:00,79.9,53.4,29.87,ESE,115,0.0,3.0,72,0.00,,,0.00,meteohub,2013-06-02 01:03:00,
2013-06-01 21:08:00,79.7,53.6,29.87,SE,140,1.0,5.0,72,0.00,,,0.00,meteohub,2013-06-02 01:08:00,
2013-06-01 21:13:00,79.5,52.9,29.88,West,275,0.0,5.0,72,0.00,,,0.00,meteohub,2013-06-02 01:13:00,
2013-06-01 21:18:00,79.5,52.7,29.88,West,275,0.0,5.0,72,0.00,,,0.00,meteohub,2013-06-02 01:18:00,
2013-06-01 21:23:00,79.3,52.7,29.88,SSW,195,0.0,2.0,72,0.00,,,0.00,meteohub,2013-06-02 01:23:00,
2013-06-01 21:28:00,79.2,52.7,29.88,SSW,195,1.0,6.0,72,0.00,,,0.00,meteohub,2013-06-02 01:28:00,
2013-06-01 21:33:00,79.2,52.7,29.88,SSW,194,0.0,6.0,72,0.00,,,0.00,meteohub,2013-06-02 01:33:00,
2013-06-01 21:38:00,79.0,52.7,29.88,NNW,343,0.0,6.0,73,0.00,,,0.00,meteohub,2013-06-02 01:38:00,
2013-06-01 21:43:00,78.6,52.7,29.87,NW,308,2.0,2.0,73,0.00,,,0.00,meteohub,2013-06-02 01:43:00,
2013-06-01 21:48:00,78.6,52.7,29.87,NW,310,0.0,2.0,73,0.00,,,0.00,meteohub,2013-06-02 01:48:00,
2013-06-01 21:53:00,78.4,52.7,29.87,WNW,302,0.0,4.0,73,0.00,,,0.00,meteohub,2013-06-02 01:53:00,
2013-06-01 21:58:00,78.3,52.5,29.87,WNW,298,0.0,4.0,73,0.00,,,0.00,meteohub,2013-06-02 01:58:00,
2013-06-01 22:03:00,78.1,52.5,29.87,WNW,298,0.0,5.0,73,0.00,,,0.00,meteohub,2013-06-02 02:03:00,
2013-06-01 22:08:00,78.1,52.3,29.87,WNW,298,0.0,5.0,74,0.00,,,0.00,meteohub,2013-06-02 02:08:00,
2013-06-01 22:13:00,77.7,52.3,29.87,NNW,347,0.0,1.0,74,0.00,,,0.00,meteohub,2013-06-02 02:13:00,
2013-06-01 22:18:00,77.7,52.3,29.87,ENE,65,0.0,5.0,75,0.00,,,0.00,meteohub,2013-06-02 02:18:00,
2013-06-01 22:23:00,77.5,52.2,29.87,WNW,294,0.0,5.0,75,0.00,,,0.00,meteohub,2013-06-02 02:23:00,
2013-06-01 22:28:00,77.5,52.2,29.87,NW,315,0.0,5.0,75,0.00,,,0.00,meteohub,2013-06-02 02:28:00,
2013-06-01 22:33:00,77.4,52.2,29.87,NW,316,0.0,5.0,75,0.00,,,0.00,meteohub,2013-06-02 02:33:00,
2013-06-01 22:38:00,77.2,52.2,29.87,NW,320,0.0,5.0,76,0.00,,,0.00,meteohub,2013-06-02 02:38:00,
2013-06-01 22:43:00,77.0,52.2,29.87,NNW,329,0.0,2.0,76,0.00,,,0.00,meteohub,2013-06-02 02:43:00,
2013-06-01 22:48:00,76.8,52.2,29.87,NNE,18,0.0,5.0,76,0.00,,,0.00,meteohub,2013-06-02 02:48:00,
2013-06-01 22:53:00,76.6,52.2,29.87,ESE,122,1.0,5.0,77,0.00,,,0.00,meteohub,2013-06-02 02:53:00,
2013-06-01 22:58:00,76.6,52.0,29.87,NNW,330,0.0,6.0,77,0.00,,,0.00,meteohub,2013-06-02 02:58:00,
2013-06-01 23:03:00,76.5,52.0,29.87,NNW,329,0.0,6.0,77,0.00,,,0.00,meteohub,2013-06-02 03:03:00,
2013-06-01 23:08:00,76.5,52.0,29.87,SSE,164,0.0,6.0,77,0.00,,,0.00,meteohub,2013-06-02 03:08:00,
2013-06-01 23:14:00,76.3,52.0,29.87,NW,318,0.0,5.0,78,0.00,,,0.00,meteohub,2013-06-02 03:14:00,
2013-06-01 23:19:00,76.1,51.3,29.87,NW,311,1.0,5.0,78,0.00,,,0.00,meteohub,2013-06-02 03:19:00,
2013-06-01 23:24:00,75.9,51.3,29.87,NNW,327,0.0,5.0,78,0.00,,,0.00,meteohub,2013-06-02 03:24:00,
2013-06-01 23:29:00,75.7,51.3,29.87,NNW,327,0.0,5.0,78,0.00,,,0.00,meteohub,2013-06-02 03:29:00,
2013-06-01 23:34:00,75.7,51.8,29.87,NNW,330,0.0,5.0,79,0.00,,,0.00,meteohub,2013-06-02 03:34:00,
2013-06-01 23:39:00,75.6,51.1,29.86,SW,222,0.0,5.0,79,0.00,,,0.00,meteohub,2013-06-02 03:39:00,
2013-06-01 23:44:00,75.4,51.1,29.87,ESE,110,0.0,5.0,79,0.00,,,0.00,meteohub,2013-06-02 03:44:00,
2013-06-01 23:49:00,75.4,51.1,29.87,NW,311,0.0,5.0,79,0.00,,,0.00,meteohub,2013-06-02 03:49:00,
2013-06-01 23:54:00,75.2,51.1,29.87,WNW,301,0.0,5.0,79,0.00,,,0.00,meteohub,2013-06-02 03:54:00,
2013-06-01 23:59:00,75.0,51.1,29.87,NW,309,0.0,6.0,80,0.00,,,0.00,meteohub,2013-06-02 03:59:00,